Tracking 20093 objects as of 15-Dec-2019
HD Live streaming from Space Station
objects crossing your sky now

PSLV DEB

Track PSLV DEB now!
10-day predictions


NORAD ID: 35347
Int'l Code: 2001-049QF
Perigee: 405.5 km
Apogee: 417.7 km
Inclination: 98.4 °
Period: 92.7 minutes
Semi major axis: 6782 km
RCS: 0.0012 m2 (small)
Launch date: October 22, 2001
Source: India (IND)
Launch site: SRIHARIKOTA (SRI)

Note: This is SATELLITE DEBRIS
aabbcc
Your satellite tracking list
Your tracking list is empty




NASA's NSSDC Master Catalog

Two Line Element Set (TLE):
1 35347U 01049QF  19348.56591760  .00042992  00000-0  65845-3 0  9997
2 35347  98.3805  19.2660 0008997  79.3423 280.8840 15.54192571885317
Source of the keplerian elements: AFSPC